EHI
92 92 89 85 84 88 91 91 90 86 84 84 78 68 52 27 12 24 34 20 7 5 3 2 2 1 1 1 1 1 1 0 0 0 1 3 10 21 36 48 53 54 55
76 76 74 70 71 75 78 80 82 76 72 70 61 49 37 19 11 26 42 37 24 14 7 4 2 0 0 0 1 2 2 1 0 0 0 1 5 12 23 37 49 57 61
42 42 40 39 41 46 53 63 73 67 58 51 35 25 24 15 14 35 59 64 50 32 19 9 3 1 0 0 1 2 2 1 0 0 0 0 1 3 8 18 34 50 60
13 12 12 12 14 21 35 57 71 69 62 52 37 31 31 25 30 51 72 76 63 45 30 16 7 3 1 0 0 1 1 0 0 0 0 0 0 0 2 5 13 30 42
2 2 2 4 7 13 30 54 70 74 73 70 65 61 56 51 56 70 79 78 66 50 37 25 14 6 1 0 0 0 0 0 0 0 0 0 0 0 0 0 2 10 19
2 2 3 5 8 12 24 41 54 61 67 73 79 82 80 78 81 85 86 83 73 60 48 37 24 11 3 1 0 0 0 1 1 0 0 0 0 0 0 0 0 2 4
1 1 2 4 5 8 13 21 28 33 38 47 61 73 80 84 90 92 92 89 82 75 66 49 31 15 5 2 0 0 0 1 1 1 0 0 0 0 0 0 0 0 0
0 0 1 1 1 3 5 7 8 10 12 17 28 41 50 61 74 85 92 93 90 87 79 61 38 20 8 2 0 0 0 1 1 1 0 0 0 0 0 0 0 0 0
0 0 0 0 0 0 1 2 2 1 1 2 6 12 18 26 39 56 72 83 87 88 84 73 52 28 11 3 0 0 0 0 0 0 0 0 0 0 0 0 0 0 0
0 0 0 0 0 0 0 0 0 0 0 0 0 1 2 5 10 20 37 51 62 71 79 77 61 36 15 5 1 0 0 0 0 0 0 0 0 0 0 0 0 0 0
0 0 0 0 0 0 0 0 0 0 0 0 0 0 0 0 0 3 9 17 26 39 54 61 54 34 14 5 2 0 0 0 0 0 0 0 0 0 0 0 0 0 0
0 0 0 0 0 0 0 0 0 0 0 0 0 0 0 0 0 0 0 1 4 11 22 32 35 25 12 6 3 0 0 0 0 0 0 0 0 0 0 0 0 0 0
0 0 0 0 0 0 0 0 0 0 0 0 0 0 0 0 0 0 0 0 0 1 4 10 16 16 13 8 4 1 0 0 0 0 0 0 0 0 0 0 0 0 0
0 0 0 0 0 0 0 0 0 0 0 0 0 0 0 0 0 0 0 0 0 0 0 2 5 9 9 6 3 1 0 0 0 0 0 0 0 0 0 0 0 0 0
0 0 0 0 0 0 0 0 0 0 0 0 0 0 0 0 0 0 0 0 0 0 0 0 1 2 3 2 1 1 0 0 0 0 0 0 0 0 0 0 0 0 0
0 0 0 0 0 0 0 0 0 0 0 0 0 0 0 0 0 0 0 0 0 0 0 0 0 0 0 0 0 0 0 0 0 0 0 0 0 0 0 0 0 0 0
0 0 0 0 0 0 0 0 0 0 0 0 0 0 0 0 0 0 0 0 0 0 0 0 0 0 0 0 0 0 0 0 0 0 0 0 0 0 0 0 0 0 0
0 0 0 0 0 0 0 0 0 0 0 0 0 0 0 0 0 0 0 0 0 0 0 0 0 0 0 0 0 0 0 0 0 0 0 0 0 0 0 0 0 0 0
0 0 0 0 0 0 0 0 0 0 0 0 0 0 0 0 0 0 0 0 0 0 0 0 0 0 0 0 0 0 0 0 0 0 0 0 0 0 0 0 0 0 0
0 0 0 0 0 0 0 0 0 0 0 0 0 0 0 0 0 0 0 0 0 0 0 0 0 0 0 0 0 0 0 0 0 0 0 0 0 0 0 0 0 0 0
0 0 0 0 0 0 0 0 0 0 0 0 0 0 0 0 0 0 0 0 0 0 0 0 0 0 0 0 0 0 0 0 0 0 0 0 0 0 0 0 0 0 0
0 0 0 0 0 0 0 0 0 0 0 0 0 0 0 0 0 0 0 0 0 0 0 0 0 0 0 0 0 0 0 0 0 0 0 0 0 0 0 0 0 0 0
0 0 0 0 0 0 0 0 0 0 0 0 0 0 0 0 0 0 0 0 0 0 0 0 0 0 0 0 0 0 0 0 0 0 0 0 0 0 0 0 0 0 0
0 0 0 0 0 0 0 0 0 0 0 0 0 0 0 0 0 0 0 0 0 0 0 0 0 0 0 0 0 0 0 0 0 0 0 0 0 0 0 0 0 0 0
0 0 0 0 0 0 0 0 0 0 0 0 0 0 0 0 0 0 0 0 0 0 0 0 0 0 0 0 0 0 0 0 0 0 0 0 0 0 0 0 0 0 0
0 0 0 0 0 0 0 0 0 0 0 0 0 0 0 0 0 0 0 0 0 0 0 0 0 0 0 0 0 0 0 0 0 0 0 0 0 0 0 0 0 0 0
Wind_Speed
9 6 5 5 6 8 9 8 7 6 4 3 3 2 2 1 1 2 5 3 1 1 1 3 3 3 3 3 4 4 5 5 5 5 6 7 9 9 8 9 9 10 11
2 4 5 7 8 6 6 7 7 6 4 4 3 2 1 1 1 1 4 4 3 1 2 2 2 4 4 5 5 4 3 5 5 5 6 6 6 6 9 8 9 10 8
17 18 16 15 14 9 4 4 5 5 3 5 3 3 2 2 3 3 3 4 4 2 1 1 2 3 4 4 4 4 5 4 5 4 4 5 5 6 5 5 5 7 7
21 19 16 13 10 7 7 6 4 2 1 1 2 2 3 3 2 1 2 4 4 3 3 3 2 2 3 5 5 4 3 5 5 4 4 6 7 6 6 7 6 6 6
18 16 11 7 8 8 9 10 9 7 6 5 5 5 5 4 2 1 2 3 4 5 5 5 3 2 4 5 4 4 5 4 5 5 5 6 6 7 6 8 7 6 4
16 14 10 9 9 12 12 13 13 12 11 9 8 6 7 6 6 6 4 3 3 5 7 6 4 3 3 4 4 5 6 5 6 5 5 6 5 5 5 6 6 6 6
14 13 12 11 12 13 13 13 13 13 14 14 14 11 9 7 7 6 6 5 4 3 4 4 3 2 3 4 5 5 6 6 6 5 5 5 6 6 6 6 7 6 5
12 12 11 10 10 11 11 11 11 11 11 11 11 11 13 9 8 8 7 6 3 2 1 3 3 4 4 5 5 4 6 5 5 7 7 5 6 5 5 6 6 6 5
10 9 9 8 8 8 8 8 8 8 8 9 8 7 8 8 9 10 9 7 7 7 4 2 3 4 5 5 5 5 6 5 5 6 7 6 6 5 5 5 5 6 5
11 10 8 8 7 6 5 5 6 6 7 8 8 8 7 7 7 7 8 7 8 8 9 7 5 5 5 6 6 5 5 5 5 5 6 6 6 5 5 5 5 6 6
11 11 10 10 9 9 8 7 6 6 6 7 7 8 8 8 8 7 6 6 7 7 8 8 8 8 7 7 6 6 6 5 5 5 5 6 6 5 5 4 5 5 5
12 13 12 12 11 10 9 8 7 6 6 6 6 7 8 9 9 9 8 8 7 7 8 8 8 9 9 8 7 6 6 5 5 5 5 6 5 6 5 5 6 5 6
15 15 13 11 10 10 10 9 9 9 8 8 7 8 8 8 9 9 9 9 9 9 9 8 8 9 9 9 8 7 6 5 4 3 4 4 5 6 5 6 5 4 5
16 15 11 9 9 9 10 10 11 10 10 10 9 9 10 10 9 10 10 10 10 10 9 9 9 9 10 10 10 8 6 5 4 2 2 2 4 5 6 5 4 2 4
18 13 11 10 9 9 8 9 10 9 10 10 10 10 10 10 10 10 10 10 10 11 9 8 8 8 9 10 10 9 8 6 5 3 1 2 4 5 4 3 1 2 6
15 16 16 14 13 11 11 10 10 9 9 10 10 11 11 11 11 10 10 10 10 10 9 9 8 8 9 10 11 10 7 5 5 3 3 5 4 5 6 8 8 7 8
19 19 18 14 12 12 11 11 10 9 9 10 10 11 11 11 11 13 12 10 10 10 10 9 9 8 7 9 9 10 7 6 5 5 4 5 6 5 5 7 10 12 13
21 19 18 17 15 15 14 11 12 11 12 11 12 11 11 12 11 11 11 10 9 9 8 8 8 7 7 6 6 8 8 7 6 6 6 7 8 6 6 6 7 7 7
19 17 19 19 16 16 14 13 13 13 14 14 12 12 12 12 11 10 10 8 8 8 8 8 8 8 6 4 4 5 5 7 7 7 8 9 9 10 9 7 8 8 7
18 18 18 18 15 13 13 13 15 15 15 15 13 13 12 13 13 11 10 9 7 7 8 9 8 7 5 2 4 6 4 7 6 6 8 11 11 12 9 8 8 9 8
19 18 17 16 14 12 12 12 13 14 14 14 14 15 14 13 14 12 9 8 9 9 8 8 7 7 6 4 6 8 5 5 4 6 7 8 15 13 9 7 7 9 9
21 21 16 15 12 11 11 12 12 12 13 14 15 15 14 14 14 11 9 8 8 8 8 7 9 8 6 6 7 10 9 5 3 4 5 9 16 13 10 7 11 13 10
19 18 18 16 12 10 10 13 12 13 15 15 16 15 15 13 12 12 11 9 7 7 8 8 8 8 5 5 9 10 9 7 3 4 5 14 16 13 8 11 15 11 5
20 19 19 19 16 14 14 14 15 14 15 15 15 14 14 13 12 9 9 9 8 7 7 7 8 6 4 5 6 6 5 5 2 1 7 15 14 9 10 10 9 6 4
19 19 19 19 20 18 18 17 16 14 15 15 14 13 12 12 10 10 9 9 8 7 6 5 5 4 4 4 7 6 5 5 4 3 5 8 8 8 7 6 5 4 4
21 21 21 21 22 21 20 18 15 14 14 13 12 10 9 8 8 8 8 11 11 10 9 7 4 1 2 6 7 8 10 10 9 5 6 8 8 8 8 7 5 4 4
Wind_Direction
212 190 162 135 107 103 119 130 149 138 153 150 156 160 151 167 153 138 124 123 151 76 44 293 355 317 296 322 325 313 303 295 283 279 275 259 246 239 231 227 230 230 225
304 6 36 51 62 74 103 118 128 141 167 127 111 113 98 241 230 113 140 167 184 173 274 23 339 319 331 306 284 289 293 297 301 301 297 287 274 257 249 226 221 225 223
32 21 16 35 39 18 38 113 117 135 161 135 171 178 161 225 229 193 186 176 174 183 218 315 296 315 303 299 326 303 285 289 295 288 289 296 294 314 294 282 247 222 218
48 44 25 19 30 12 350 35 59 101 93 155 271 265 235 235 244 209 191 157 169 196 199 212 247 286 295 296 289 308 320 298 292 291 277 273 288 294 301 305 301 276 236
69 66 50 27 28 29 24 25 23 26 17 351 324 311 295 289 286 267 167 163 199 206 203 198 197 241 269 283 305 309 297 290 286 290 293 290 287 268 267 283 293 299 282
65 70 64 46 35 33 31 28 25 23 13 1 341 319 307 310 313 311 298 247 223 207 198 185 174 218 262 290 296 289 285 279 281 281 280 280 281 283 277 274 281 283 284
64 61 56 47 39 34 31 29 27 24 20 18 9 360 349 331 308 292 276 255 247 231 182 162 148 228 262 270 269 272 275 277 277 276 273 274 273 274 276 276 278 277 284
58 57 53 49 43 37 28 25 24 21 17 16 11 15 12 1 349 339 324 310 296 293 111 147 190 224 245 260 270 279 274 278 284 285 280 275 274 271 270 268 274 280 274
43 44 44 42 37 34 29 19 14 7 4 3 356 1 6 0 354 350 349 342 338 323 316 255 232 238 245 251 260 264 273 278 282 288 289 285 279 275 268 260 250 249 258
11 12 10 10 6 2 9 8 1 350 344 345 343 343 342 339 337 339 347 348 344 337 325 309 285 266 257 251 250 260 270 284 286 284 285 287 283 278 272 264 254 239 236
347 343 339 340 336 336 345 348 345 338 332 333 332 327 323 323 321 317 323 333 332 332 325 312 296 280 267 258 250 252 266 277 289 297 301 301 297 290 282 269 257 243 226
325 323 322 322 322 326 330 330 329 321 315 315 313 311 313 314 312 310 315 317 314 313 314 312 305 291 280 269 259 257 268 279 288 302 311 312 312 307 296 282 262 241 219
320 315 310 305 299 294 290 287 283 279 274 271 269 272 277 283 287 291 296 300 301 301 303 303 302 298 291 283 272 260 256 262 276 297 311 320 324 316 306 291 270 245 214
310 306 304 299 292 281 271 268 267 264 264 261 259 259 261 263 267 271 274 277 280 283 285 290 294 294 293 285 275 266 252 249 255 260 287 325 337 329 314 303 282 228 158
317 325 328 323 315 308 296 288 280 272 265 261 258 257 256 255 256 259 261 264 267 272 274 279 285 291 290 281 279 269 253 235 235 220 203 76 56 27 355 332 335 132 129
331 334 327 322 318 314 309 303 296 290 280 272 269 265 260 258 257 256 256 258 261 263 265 269 274 281 289 306 304 281 261 236 227 201 169 138 120 85 58 61 69 94 121
331 324 320 316 310 305 299 296 299 300 297 291 284 278 269 265 261 260 258 252 253 254 255 260 263 268 279 291 287 269 258 232 216 188 178 167 134 134 110 87 80 79 86
321 317 314 310 304 301 301 299 302 301 298 294 292 290 284 277 269 262 257 253 252 254 257 260 263 263 272 287 274 257 253 241 215 186 172 150 150 152 146 122 99 89 88
314 310 306 304 301 299 298 297 297 298 294 293 292 292 290 288 283 275 266 259 256 254 256 261 256 257 262 270 252 233 247 244 220 187 169 158 157 156 156 133 116 105 96
308 304 303 301 296 293 293 292 294 294 293 295 295 291 285 281 279 277 274 272 264 258 256 257 256 258 255 226 198 201 237 246 224 183 163 164 156 159 160 144 136 129 129
306 304 301 299 296 290 286 282 286 288 292 296 297 294 289 283 278 270 264 265 266 264 259 265 271 266 253 209 184 188 213 250 242 190 168 158 154 158 157 150 144 145 141
309 307 303 298 293 288 287 288 290 295 298 298 294 290 286 284 281 273 266 259 261 261 258 256 259 259 242 213 188 192 199 213 262 250 181 156 159 160 159 152 149 154 151
311 310 308 304 303 305 308 304 303 305 302 296 290 286 282 277 271 267 265 260 252 250 252 252 254 252 230 192 188 195 193 189 219 271 204 157 156 152 148 150 155 164 172
318 319 319 320 320 322 318 310 306 301 295 289 284 279 276 272 266 257 253 250 244 238 239 247 256 255 220 185 186 194 173 139 132 242 155 144 146 144 134 145 160 182 181
327 329 328 324 321 317 310 305 300 294 288 284 280 275 270 265 261 253 244 242 236 225 223 241 252 250 225 197 192 185 161 136 118 137 161 149 145 141 143 155 172 181 151
333 330 325 319 313 309 303 299 295 289 285 282 277 271 265 259 253 249 248 230 224 217 213 221 229 199 155 157 166 160 136 125 135 173 186 158 152 151 153 161 164 156 144